Zurück zum Katalog

STARLINK-32598

AktivKommunikationVLEO
NORAD 62046·PAYLOAD·🇺🇸 United States

Gestartet Nov 21, 2024 von Cape Canaveral Space Force Station

Loading…

Nächste Überflüge (nächste 24 Stunden)

TLE

AktuellSource: CelesTrak SupGP

Epoche: Sep 15, 2026, 02:27 UTC

1 62046C 24216Q   26258.10256944 -.00008289  00000+0 -30027-3 0  2588
2 62046  43.0004 266.1404 0001319 264.6582 302.5402 15.27577578    12

Verfolge STARLINK-32598 in Echtzeit mit AllMySat

Download on the App Store